Change the Weather History Date:

Wednesday, December 18, 2013

  Actual Average Record
Temperature  
Mean Temperature 48 °F -  
Max Temperature 63 °F 57 °F 66 °F (2012)
Min Temperature 34 °F 34 °F 34 °F (2013)
Degree Days  
Heating Degree Days 16    
Moisture  
Dew Point 33 °F    
Average Humidity 59    
Maximum Humidity 100    
Minimum Humidity 23    
Precipitation  
Precipitation 0.00 in - - ()
Sea Level Pressure  
Sea Level Pressure 30.30 in    
Wind  
Wind Speed 4 mph (NNW)    
Max Wind Speed 12 mph    
Max Gust Speed 17 mph    
Visibility 10 miles    
Events      
Averages and records for this station are not official NWS values.
T = Trace of Precipitation, MM = Missing Value Source: NWS Daily Summary

Daily Weather History Graph

Daily Weather History Graph

Search for Another Location

Airport or City:

Trip Planner

Search our weather history database for the weather conditions in past years. The results will help you decide how hot, cold, wet, or windy it might be!

Date:

Astronomy

Dec. 18, 2013 Rise Set
Actual Time 7:28 AM EST 5:30 PM EST
Civil Twilight 7:00 AM EST 5:57 PM EST
Nautical Twilight 6:30 AM EST 6:28 PM EST
Astronomical Twilight 6:00 AM EST 6:58 PM EST
Moon 6:56 PM EST (12/18) 8:11 AM EST (12/18)
Length of Visible Light 10h 56m
Length of Day
10h 02m
Full, 98% of the Moon is Illuminated
Dec 18
Full
Dec 25
Last Quarter
Jan 1
New
Jan 7
First Quarter
Jan 15
Full

Hourly Weather History & Observations

Time (EST) Temp. Windchill Dew Point Humidity Pressure Visibility Wind Dir Wind Speed Gust Speed Precip Events Conditions
12:15 AM 50.0 °F - 39.4 °F 67% 30.21 in 10.0 mi West 4.6 mph - N/A   Clear
12:35 AM 49.6 °F - 39.4 °F 68% 30.21 in 10.0 mi West 4.6 mph - N/A   Clear
12:55 AM 50.9 °F - 39.2 °F 64% 30.21 in 10.0 mi West 5.8 mph - N/A   Clear
1:15 AM 51.8 °F - 39.2 °F 62% 30.22 in 10.0 mi West 6.9 mph - N/A   Clear
1:35 AM 51.4 °F - 39.2 °F 63% 30.22 in 10.0 mi West 6.9 mph - N/A   Clear
1:55 AM 51.1 °F - 38.8 °F 63% 30.22 in 10.0 mi WNW 5.8 mph - N/A   Clear
2:15 AM 51.1 °F - 38.8 °F 63% 30.22 in 10.0 mi WNW 4.6 mph - N/A   Clear
2:35 AM 50.5 °F - 38.8 °F 64% 30.22 in 10.0 mi NW 5.8 mph - N/A   Clear
2:55 AM 49.8 °F - 38.7 °F 65% 30.23 in 10.0 mi NW 5.8 mph - N/A   Clear
3:15 AM 47.7 °F - 38.5 °F 70% 30.23 in 10.0 mi NW 4.6 mph - N/A   Clear
3:35 AM 47.5 °F - 38.8 °F 72% 30.24 in 10.0 mi NW 4.6 mph - N/A   Clear
3:55 AM 47.3 °F - 39.2 °F 73% 30.24 in 10.0 mi NW 3.5 mph - N/A   Clear
4:15 AM 47.7 °F - 39.4 °F 73% 30.25 in 10.0 mi Calm Calm - N/A   Clear
4:35 AM 48.4 °F - 39.7 °F 72% 30.25 in 10.0 mi NNW 4.6 mph - N/A   Clear
4:55 AM 48.6 °F - 39.2 °F 70% 30.25 in 10.0 mi NNW 4.6 mph - N/A   Clear
5:15 AM 48.0 °F - 38.3 °F 69% 30.26 in 10.0 mi NNW 3.5 mph - N/A   Clear
5:35 AM 47.7 °F - 36.5 °F 65% 30.27 in 10.0 mi NNW 3.5 mph - N/A   Clear
5:55 AM 46.8 °F - 35.8 °F 66% 30.28 in 10.0 mi NNW 3.5 mph - N/A   Clear
6:15 AM 45.7 °F - 35.6 °F 68% 30.29 in 10.0 mi Calm Calm - N/A   Clear
6:35 AM 43.7 °F 42.1 °F 35.8 °F 74% 30.30 in 10.0 mi NNW 3.5 mph - N/A   Clear
6:55 AM 43.7 °F - 35.1 °F 72% 30.30 in 10.0 mi Calm Calm - N/A   Clear
7:15 AM 43.3 °F - 33.6 °F 69% 30.31 in 10.0 mi Calm Calm - N/A   Clear
7:35 AM 42.3 °F - 32.9 °F 69% 30.32 in 10.0 mi Calm Calm - N/A   Clear
7:55 AM 41.2 °F - 33.1 °F 73% 30.33 in 10.0 mi Calm Calm - N/A   Clear
8:15 AM 43.3 °F - 33.4 °F 68% 30.33 in 10.0 mi Calm Calm - N/A   Clear
8:35 AM 45.0 °F 43.5 °F 33.1 °F 63% 30.33 in 10.0 mi North 3.5 mph - N/A   Clear
8:55 AM 47.1 °F - 31.5 °F 55% 30.34 in 10.0 mi NNW 5.8 mph - N/A   Clear
9:15 AM 48.6 °F - 29.7 °F 48% 30.35 in 10.0 mi North 6.9 mph - N/A   Clear
9:35 AM 49.8 °F - 28.8 °F 44% 30.35 in 10.0 mi North 6.9 mph - N/A   Clear
9:55 AM 51.1 °F - 27.3 °F 40% 30.36 in 10.0 mi North 6.9 mph - N/A   Clear
10:15 AM 52.7 °F - 27.1 °F 37% 30.36 in 10.0 mi North 6.9 mph - N/A   Clear
10:35 AM 53.8 °F - 26.4 °F 35% 30.36 in 10.0 mi North 10.4 mph 16.1 mph N/A   Clear
10:55 AM 55.9 °F - 27.1 °F 33% 30.36 in 10.0 mi North 10.4 mph 17.3 mph N/A   Clear
11:15 AM 56.3 °F - 27.1 °F 33% 30.35 in 10.0 mi NNE 6.9 mph - N/A   Clear
11:35 AM 57.4 °F - 26.2 °F 30% 30.35 in 10.0 mi North 11.5 mph 17.3 mph N/A   Clear
11:55 AM 58.3 °F - 26.1 °F 29% 30.35 in 10.0 mi North 9.2 mph - N/A   Clear
12:15 PM 59.2 °F - 26.2 °F 28% 30.33 in 10.0 mi North 6.9 mph - N/A   Clear
12:35 PM 60.8 °F - 26.2 °F 27% 30.32 in 10.0 mi North 8.1 mph - N/A   Clear
12:55 PM 60.3 °F - 24.1 °F 25% 30.32 in 10.0 mi NNW 9.2 mph - N/A   Clear
1:15 PM 61.0 °F - 25.0 °F 25% 30.31 in 10.0 mi North 6.9 mph - N/A   Clear
1:35 PM 62.2 °F - 24.8 °F 24% 30.30 in 10.0 mi NNW 10.4 mph - N/A   Clear
1:55 PM 61.9 °F - 25.3 °F 25% 30.30 in 10.0 mi NW 6.9 mph - N/A   Clear
2:15 PM 62.2 °F - 24.4 °F 24% 30.29 in 10.0 mi North 8.1 mph - N/A   Clear
2:35 PM 63.0 °F - 26.4 °F 25% 30.29 in 10.0 mi NW 5.8 mph - N/A   Clear
2:55 PM 62.6 °F - 24.4 °F 23% 30.29 in 10.0 mi NNW 5.8 mph - N/A   Clear
3:15 PM 62.8 °F - 27.5 °F 26% 30.29 in 10.0 mi WNW 5.8 mph - N/A   Clear
3:35 PM 62.4 °F - 27.1 °F 26% 30.29 in 10.0 mi NW 4.6 mph - N/A   Clear
3:55 PM 62.1 °F - 26.6 °F 26% 30.30 in 10.0 mi NW 4.6 mph - N/A   Clear
4:15 PM 61.7 °F - 25.7 °F 25% 30.30 in 10.0 mi NW 4.6 mph - N/A   Clear
4:35 PM 61.2 °F - 26.1 °F 26% 30.30 in 10.0 mi Calm Calm - N/A   Clear
4:55 PM 60.3 °F - 26.4 °F 28% 30.30 in 10.0 mi Calm Calm - N/A   Clear
5:15 PM 58.3 °F - 27.7 °F 31% 30.30 in 10.0 mi Calm Calm - N/A   Clear
5:35 PM 54.1 °F - 31.6 °F 42% 30.30 in 10.0 mi Calm Calm - N/A   Clear
5:55 PM 51.1 °F - 31.3 °F 47% 30.30 in 10.0 mi Calm Calm - N/A   Clear
6:15 PM 47.5 °F - 33.6 °F 59% 30.30 in 10.0 mi Calm Calm - N/A   Clear
6:35 PM 46.0 °F - 35.2 °F 66% 30.30 in 10.0 mi Calm Calm - N/A   Clear
6:55 PM 44.2 °F - 35.8 °F 72% 30.31 in 10.0 mi Calm Calm - N/A   Clear
7:15 PM 41.9 °F - 36.0 °F 79% 30.32 in 10.0 mi Calm Calm - N/A   Clear
7:35 PM 40.6 °F - 37.2 °F 88% 30.33 in 10.0 mi Calm Calm - N/A   Clear
7:55 PM 41.2 °F - 37.0 °F 85% 30.33 in 10.0 mi Calm Calm - N/A   Clear
8:15 PM 39.4 °F - 37.2 °F 92% 30.33 in 10.0 mi Calm Calm - N/A   Clear
8:35 PM 38.7 °F - 37.6 °F 96% 30.34 in 10.0 mi Calm Calm - N/A   Clear
8:55 PM 37.4 °F - 36.7 °F 97% 30.33 in 10.0 mi Calm Calm - N/A   Clear
9:15 PM 36.5 °F - 35.8 °F 97% 30.34 in 10.0 mi Calm Calm - N/A   Clear
9:35 PM 38.5 °F - 37.8 °F 97% 30.34 in 10.0 mi Calm Calm - N/A   Clear
9:55 PM 36.5 °F - 36.5 °F 100% 30.35 in 10.0 mi Calm Calm - N/A   Clear
10:15 PM 36.3 °F - 36.3 °F 100% 30.35 in 10.0 mi Calm Calm - N/A   Clear
10:35 PM 35.2 °F - 35.2 °F 100% 30.35 in 10.0 mi Calm Calm - N/A   Clear
10:55 PM 34.3 °F - 34.3 °F 100% 30.35 in 10.0 mi Calm Calm - N/A   Clear
11:15 PM 34.2 °F - 34.2 °F 100% 30.35 in 10.0 mi Calm Calm - N/A   Clear
11:35 PM 34.3 °F - 34.3 °F 100% 30.35 in 10.0 mi Calm Calm - N/A   Clear
11:55 PM 34.3 °F - 34.3 °F 100% 30.35 in 3.0 mi Calm Calm - N/A   Clear